Location: ?????????
(41.2393°N, 22.9479°E)
Time: 13:29:01
(UTC+00:00)

USA 215 - Pass Details

Date: 17 November 2025
Orbit: 1101 x 1106 km, 123.0° (Epoch: 02 December)

Event Time Altitude Azimuth Distance (km) Brightness Sun altitude
Rises 16:41:04 0° 141° (SE) 3,908 5.9 -17.6°
Reaches altitude 10° 16:43:33 10° 144° (SE) 2,953 5.3 -18.1°
Maximum altitude 16:50:02 66° 226° (SW) 1,197 3.6 -19.3°
Drops below altitude 10° 16:56:33 10° 308° (NW) 2,969 6.1 -20.5°
Sets 16:59:05 0° 311° (NW) 3,931 6.8 -20.9°
